STARLINK-1441 (45658 NORAD) Tracking and Keplerian Element Data

This shows tracking and keplerian element data for the satellite.

Feedback or suggestion? Click here.




ElementValue
Catalog45658
NameSTARLINK-1441
Epoch Orbit567
Epoch Day186.50001157
Epoch Year2020
RAAN20.5695
Inclination53.0004
Eccentricity0.0001274
Argument of Perigee74.3349
Mean Anonmoly30.5727
Mean Motion15.46896154
Decay Rate-0.01078389
L11 45658U 20035B 20186.50001157 -.01078389 00000-0 -23289-1 0 9997
L22 45658 53.0004 20.5695 0001274 74.3349 30.5727 15.46896154 5674

Live tracking and technical data element details for STARLINK-1441 (NORAD 45658). STARLINK-1441 can be tracked NOW for your location showing map with azimuth and elevation plus other details from your city location.

Track the satellite on the map from your city or location and see movement details for azimuth, elevation, latitude, longitude, range, height, and movement on the map or in text.







IsCatalogInMostPopularTable: catalog: 45658, numindb: 5
Update: records affected: 1



GetName: 45658 STARLINK-1441

Hit Count: updated at: Sun, 05 Jul 2020 17:10:22 GMT